Theta_e
319 321 318 319 318 318 317 315 318 321 319 317 320 323 324 323 320 317 316 313 312 315 318 320 319 319 318 316 316 313 311 312 314 316 316 315 314 313 313 313 312 312 311 307 306 308 308 309 310 310 311 311 313 314 316 318 319 321 322 323 324 325 326 328 330 331 333 335 335 336 336 336 335 335 334 334 333 333 331 331 331 331 331 330 329 330
316 319 319 320 318 316 316 316 318 318 318 319 320 320 319 318 319 315 313 315 313 314 318 320 321 320 318 318 315 313 313 315 317 318 317 316 314 313 313 313 313 311 310 308 307 307 307 309 309 309 309 309 310 312 313 315 317 319 321 323 323 324 326 327 328 330 331 333 333 334 334 335 335 335 334 334 334 333 332 331 331 332 331 330 330 329
317 319 320 318 315 314 314 316 320 321 323 324 320 319 319 319 319 315 313 315 314 314 319 323 322 319 318 319 316 314 315 315 316 316 316 315 315 314 313 313 312 311 312 311 308 305 305 307 308 308 309 309 309 310 311 313 315 318 320 322 323 324 325 326 327 329 329 330 331 332 332 333 333 333 334 334 334 334 333 332 332 331 331 331 330 330
320 321 319 314 314 315 314 315 319 321 322 323 321 321 320 319 318 317 315 315 314 313 317 322 320 317 317 318 318 316 313 313 315 315 314 313 314 313 312 312 312 311 312 311 310 307 304 305 306 307 308 309 310 310 311 312 314 317 319 321 322 324 325 325 327 328 329 329 330 330 331 331 332 332 332 333 333 334 333 333 333 332 332 331 331 330
321 316 311 311 313 317 317 314 316 319 317 318 325 330 326 323 321 318 315 317 316 313 315 317 315 321 327 327 328 322 313 313 315 314 316 315 312 311 312 312 311 310 310 309 311 309 303 302 304 306 307 309 309 310 311 312 313 316 317 319 321 323 324 325 326 327 328 329 329 329 330 330 330 330 331 331 332 333 333 334 333 331 330 330 331 330
318 310 308 313 314 318 319 316 319 322 317 316 324 331 331 330 326 320 318 320 321 316 312 311 313 329 338 332 329 326 319 318 315 313 318 317 310 311 315 315 313 313 311 308 309 309 304 302 303 305 306 307 309 310 311 312 313 315 317 319 321 322 324 325 325 327 328 328 328 328 328 328 328 328 329 329 330 331 331 332 332 331 329 329 329 329
315 310 312 318 316 318 318 316 318 320 320 317 318 321 326 331 328 324 320 317 319 314 310 311 315 322 327 322 322 324 324 325 319 317 324 320 311 313 316 317 318 320 318 313 310 309 305 303 303 304 306 307 309 310 311 312 313 315 317 319 320 322 323 324 325 326 327 328 328 328 328 328 327 327 327 328 328 328 328 329 330 330 330 330 330 330
314 313 315 317 318 319 317 317 317 317 321 320 316 318 326 329 328 328 325 322 322 315 314 321 321 315 318 316 317 320 322 324 321 320 324 320 315 316 317 316 318 319 319 319 319 319 311 303 302 304 306 308 309 310 311 312 313 315 317 318 320 322 323 324 325 326 326 327 328 328 328 327 327 327 327 327 327 327 327 327 327 328 329 329 330 331
314 318 318 317 319 319 320 322 317 317 322 320 313 316 323 325 330 333 333 331 321 312 318 327 315 312 323 321 317 316 316 319 321 319 319 317 317 319 316 314 313 311 311 313 319 322 312 303 303 306 307 309 310 310 311 312 314 316 317 319 320 321 323 324 324 325 326 327 327 327 327 327 327 327 326 326 326 326 326 326 326 327 328 328 328 329
314 316 315 316 318 319 320 319 315 319 324 317 310 315 319 322 327 329 332 328 317 313 326 327 314 311 321 324 320 314 313 319 321 320 319 318 319 319 317 317 317 316 315 315 317 312 303 302 307 309 310 311 311 311 312 314 315 316 318 319 321 321 322 323 324 325 325 326 326 327 327 327 327 326 326 325 325 324 325 325 325 326 326 327 327 328
314 311 312 315 315 316 316 314 313 318 319 313 316 321 320 323 328 330 331 324 314 321 329 322 315 312 313 323 324 314 314 319 318 321 323 322 323 320 320 324 326 327 327 327 326 312 300 304 309 310 312 312 312 312 313 314 315 317 318 319 320 321 322 323 323 324 325 325 325 326 326 326 326 326 325 325 324 324 323 323 324 324 324 325 325 326
316 314 315 315 313 314 317 317 312 311 313 317 324 325 318 322 326 329 332 323 317 327 324 315 314 312 311 323 328 319 318 317 314 319 322 321 324 323 325 329 328 329 329 330 332 321 310 310 310 310 312 312 313 314 313 315 316 316 318 319 320 321 321 322 322 323 324 324 325 325 325 325 326 325 324 324 324 323 323 323 323 323 323 323 322 323
320 319 317 314 313 314 321 323 314 312 318 320 322 323 320 323 320 323 330 323 321 324 315 312 315 312 312 317 319 319 319 315 311 313 318 320 322 324 327 329 329 331 334 334 334 331 326 318 308 308 312 312 313 314 314 315 316 316 317 318 319 319 320 321 321 322 323 323 324 324 324 324 324 325 324 324 323 323 323 323 322 322 321 321 321 320
320 323 318 316 316 314 317 321 318 317 320 317 317 321 322 323 318 320 324 316 317 319 312 311 315 315 317 314 313 316 313 313 315 313 315 318 318 321 321 321 325 331 337 338 335 340 340 320 306 307 311 311 313 314 314 315 315 316 317 317 318 319 319 320 320 320 321 321 322 322 322 323 323 323 323 323 323 322 322 321 321 321 320 320 320 319
318 321 319 318 318 315 315 318 321 322 318 316 318 316 318 326 325 322 323 319 321 321 314 310 314 322 323 313 313 317 313 313 316 315 314 314 315 315 314 318 328 334 340 341 337 342 332 310 305 310 310 311 313 313 314 315 315 316 316 316 317 317 318 318 318 319 319 319 320 320 321 321 321 322 322 322 322 321 321 320 320 320 319 318 318 318
316 316 318 317 314 315 317 317 318 320 318 317 315 313 315 324 326 318 314 318 319 317 317 314 317 326 322 313 314 313 312 313 316 317 318 318 318 316 318 326 333 336 341 343 342 344 325 305 305 310 309 311 313 313 314 314 314 315 315 316 316 316 316 316 316 317 317 317 318 318 318 318 319 319 319 319 319 319 319 319 318 318 318 317 316 316
316 315 315 316 314 314 316 316 316 318 318 316 314 318 320 318 323 319 309 310 311 311 317 316 318 321 314 312 316 313 313 316 319 321 320 321 323 322 324 330 334 335 338 339 340 342 324 306 306 309 307 310 312 312 314 313 314 314 314 315 315 314 315 315 315 315 315 316 315 316 316 316 316 317 317 317 317 317 317 317 317 316 316 316 315 315
320 318 314 316 317 313 310 313 317 316 315 318 320 322 316 311 319 321 313 318 317 314 319 316 315 318 313 313 319 316 314 317 321 324 321 322 325 323 321 324 330 331 331 335 333 332 318 304 306 310 308 310 312 313 314 313 313 313 313 314 314 314 314 314 314 314 314 314 314 314 314 314 315 315 315 315 315 315 316 315 316 315 315 315 315 314
319 319 314 313 317 315 313 315 317 314 311 317 321 317 316 317 320 317 314 321 319 315 323 321 313 312 313 316 319 315 316 321 321 320 320 321 323 322 318 317 325 328 329 335 335 338 327 307 306 311 311 312 314 313 313 312 312 313 313 313 313 313 314 313 313 313 313 314 313 314 314 313 314 314 314 314 314 314 314 314 314 314 314 314 314 314
315 317 314 312 314 315 317 317 318 318 313 313 313 310 317 325 323 318 315 318 317 314 319 322 319 316 316 318 320 314 316 323 323 320 323 323 318 315 314 316 326 330 332 336 336 343 332 308 305 310 311 314 315 313 314 313 313 313 313 312 313 313 313 313 313 313 313 313 313 313 313 313 313 313 313 313 313 313 313 313 313 313 313 313 313 313
313 312 312 314 313 315 320 319 318 320 316 315 314 312 317 318 317 319 315 315 319 319 319 320 319 322 324 319 319 316 315 321 324 323 327 324 313 310 314 318 325 328 332 336 335 338 323 305 306 312 313 315 316 315 315 314 314 314 313 313 313 312 313 312 313 313 313 313 313 313 313 313 313 313 313 312 312 313 312 312 312 312 312 312 312 312
313 311 316 319 317 318 322 317 314 318 317 316 316 315 317 316 316 318 315 313 315 315 319 319 314 320 327 320 319 320 316 316 316 316 322 325 314 310 314 317 321 325 331 332 330 329 316 305 309 314 315 316 316 316 316 315 315 315 314 314 314 313 314 313 313 313 313 313 313 313 313 313 313 312 312 312 312 312 312 312 312 312 312 311 311 311
317 318 323 324 320 319 317 311 310 315 316 316 316 316 316 315 317 319 317 317 314 309 313 317 315 316 318 316 318 318 313 311 309 310 317 323 317 312 315 318 318 321 327 327 324 318 307 304 311 314 314 316 315 315 315 315 315 315 315 314 314 314 314 313 313 312 313 313 312 313 312 312 312 312 312 312 312 312 311 311 311 311 311 311 311 311
315 317 319 320 321 321 317 313 312 313 313 315 317 317 316 316 318 321 321 319 317 314 313 315 317 315 314 318 318 315 315 317 315 314 318 322 323 322 324 324 322 323 326 326 324 315 305 306 312 313 313 315 314 314 314 314 314 314 314 314 313 313 313 312 312 312 312 312 311 312 312 311 311 311 311 311 311 311 311 310 310 310 310 310 310 310
312 315 317 317 319 320 318 318 318 316 315 318 319 316 316 318 317 316 316 314 315 319 318 317 318 316 318 323 319 316 322 324 321 318 319 324 327 325 323 323 324 328 328 324 325 324 317 314 312 310 311 312 312 313 312 312 313 312 312 312 311 311 311 310 311 311 311 311 311 311 311 311 311 310 310 310 310 310 310 309 310 309 309 309 309 309
313 316 316 315 315 315 315 317 318 318 316 317 319 316 315 318 317 315 318 316 315 319 318 316 317 313 314 319 316 315 321 322 318 317 316 319 323 323 324 325 326 329 328 323 324 326 324 317 309 305 308 310 309 310 310 309 310 310 309 310 309 309 309 309 310 310 310 310 310 311 311 310 310 309 309 309 309 309 309 308 309 308 309 308 308 309
319 318 313 312 313 312 311 315 319 322 319 317 319 318 315 316 317 318 321 319 315 317 316 314 315 313 313 316 316 320 325 324 321 318 318 319 322 325 327 328 327 326 325 322 321 321 322 321 310 302 304 307 306 307 307 307 308 309 309 309 309 308 309 309 310 310 310 310 310 310 310 309 309 308 308 308 308 308 308 308 308 308 308 308 307 307
321 316 312 313 313 311 311 317 321 321 320 319 318 318 317 316 316 317 318 316 314 315 315 314 313 313 312 313 318 323 327 326 323 322 322 321 322 325 327 327 328 327 326 325 324 323 324 327 318 305 303 307 307 306 308 308 309 310 310 310 309 309 309 310 310 310 310 310 310 310 309 308 308 308 307 308 307 307 307 307 307 307 307 307 306 306
318 315 314 313 312 312 312 316 321 320 318 319 317 317 317 315 315 316 315 315 315 315 314 314 314 314 312 312 315 317 321 324 323 321 320 319 321 325 324 325 327 328 331 333 330 325 324 328 322 308 304 307 307 307 308 309 309 309 309 309 308 308 309 309 310 310 309 310 309 309 308 307 307 307 307 307 307 307 307 306 306 306 306 306 305 305
317 318 318 313 311 314 312 314 321 320 317 317 316 316 316 314 315 315 314 314 315 314 314 315 316 316 312 311 313 314 316 318 317 317 320 320 321 323 323 325 327 327 330 331 327 325 325 324 315 304 303 305 304 305 307 307 307 307 307 307 307 307 308 308 309 309 309 309 308 308 308 307 307 307 307 307 306 306 306 306 306 306 305 306 305 305
313 320 321 314 312 315 312 313 318 319 316 316 317 316 315 314 314 314 315 315 314 314 314 315 316 315 311 312 315 315 313 311 311 314 318 319 319 321 323 324 322 320 320 321 320 320 319 316 306 299 300 303 302 303 304 304 306 306 306 306 307 307 308 308 308 309 308 308 308 308 307 307 307 307 307 307 306 306 305 305 305 305 305 305 305 305
312 318 319 315 314 315 314 315 315 313 312 313 315 316 316 315 314 313 314 314 314 315 316 315 315 314 312 314 316 315 312 311 312 313 314 315 317 317 316 316 314 313 314 315 314 312 312 312 305 300 299 301 302 302 302 303 305 305 306 306 306 307 307 307 308 308 307 307 307 307 306 306 306 307 307 306 306 305 305 305 305 305 305 305 304 304
316 318 320 318 318 317 316 316 314 312 312 313 314 315 314 313 313 313 313 313 314 315 315 316 315 313 313 315 316 314 314 314 313 313 313 314 313 313 313 312 311 312 316 318 315 312 310 306 302 299 299 300 301 301 302 303 304 304 304 305 306 306 307 307 307 306 306 306 305 305 305 305 305 305 305 305 305 305 305 305 305 305 304 304 304 303
317 318 318 317 319 319 316 314 314 315 316 316 314 312 311 312 313 314 314 314 314 313 313 314 314 313 313 314 314 314 314 314 313 311 311 313 312 312 312 312 314 318 319 316 313 309 304 299 298 299 300 300 300 301 301 302 303 303 304 305 306 306 306 306 306 305 304 304 303 303 303 302 302 303 303 303 303 303 303 303 303 303 303 303 302 302
317 318 318 317 319 319 314 314 317 317 317 316 317 317 313 310 311 313 313 313 312 313 313 313 314 313 313 313 313 312 312 313 316 314 313 313 313 313 315 315 315 316 313 310 309 306 299 296 298 299 299 300 300 300 301 302 302 303 304 304 305 305 305 305 305 304 304 304 303 302 301 300 300 300 300 301 300 301 301 301 301 301 301 301 300 300
317 318 318 319 320 318 316 316 317 318 318 318 321 321 315 311 311 312 313 312 311 311 312 312 312 312 312 312 312 313 313 314 317 316 313 311 310 311 314 313 309 307 305 303 302 300 297 296 298 298 298 299 298 299 299 300 301 302 303 303 303 304 304 303 303 302 302 302 302 302 301 300 299 299 299 299 299 299 299 299 299 300 299 299 299 299
316 317 318 319 319 318 318 317 316 318 319 318 321 322 318 315 314 313 313 314 312 310 310 311 311 311 311 311 312 316 316 313 315 314 308 306 305 303 303 302 300 300 298 296 296 297 297 298 298 298 298 298 297 298 298 298 299 300 301 301 302 302 301 300 299 299 298 299 300 300 300 300 299 300 301 301 300 300 299 299 298 298 298 298 297 298
315 316 317 318 318 317 318 318 317 319 319 316 318 320 319 319 318 314 315 316 315 313 311 310 310 311 311 310 312 316 315 312 314 313 305 302 302 300 299 296 294 294 295 294 296 297 297 298 298 297 297 296 296 296 296 297 298 299 300 300 300 299 298 297 296 296 296 297 298 298 299 300 300 300 301 301 301 301 300 300 299 298 298 297 297 297
314 314 315 316 318 318 318 318 318 319 320 319 320 318 315 317 318 315 316 317 317 317 315 311 311 311 310 310 313 315 314 313 315 311 302 300 299 298 299 297 293 293 295 294 295 296 295 296 296 296 296 295 295 295 295 296 297 297 298 298 297 296 295 294 294 294 294 295 297 298 299 299 299 299 299 300 300 300 300 300 301 300 299 297 297 297
313 314 313 315 317 317 317 319 318 318 319 319 318 315 313 313 315 317 319 318 316 312 310 312 313 313 312 313 314 315 314 314 314 307 299 298 296 294 296 296 293 293 294 294 294 294 294 295 295 295 295 294 293 294 294 295 296 296 296 295 294 294 293 292 292 292 293 295 297 298 298 298 299 298 298 298 299 299 299 300 300 301 300 299 298 297
313 313 313 314 315 315 316 318 317 317 320 320 317 316 315 313 316 320 319 314 310 305 303 308 311 310 310 314 315 313 308 304 303 300 297 297 297 294 293 293 293 293 293 293 293 293 293 294 294 294 293 292 292 292 292 293 294 294 294 294 293 292 291 291 291 292 293 295 297 298 298 298 298 297 297 297 297 298 299 298 298 299 298 298 298 297
314 314 313 314 314 314 315 316 315 316 317 317 316 314 313 314 318 318 310 304 302 301 300 303 304 302 303 307 307 304 300 298 298 298 297 297 297 295 293 292 292 292 292 292 292 291 291 292 292 293 292 291 291 291 291 291 292 291 292 292 292 291 290 290 290 291 292 294 296 297 298 298 297 296 296 296 295 295 297 297 296 296 296 295 295 295
314 315 314 314 314 314 314 314 316 316 314 312 312 312 312 314 315 311 304 299 299 300 300 300 300 299 299 300 299 299 299 299 298 298 297 296 295 294 292 291 291 291 291 291 290 290 290 290 291 291 291 290 290 289 289 290 290 290 290 290 290 289 289 289 290 290 291 293 294 295 296 296 296 295 295 294 293 293 294 295 295 294 294 293 293 293
314 315 314 314 314 314 315 315 314 313 309 307 310 312 312 309 306 304 303 301 300 299 299 299 299 298 298 298 298 298 299 298 297 297 296 295 295 293 292 291 291 290 290 290 289 288 288 288 289 289 290 290 289 288 288 288 288 288 288 288 288 288 288 289 289 290 290 291 292 293 293 294 294 293 292 292 292 291 292 293 293 292 293 292 291 291
314 313 314 316 314 311 313 314 311 306 303 302 304 306 304 302 301 301 303 303 300 299 299 299 299 298 297 297 298 298 298 297 297 295 295 294 293 292 292 291 290 289 289 288 287 287 286 287 287 287 288 288 288 287 286 286 286 286 287 287 287 286 287 287 287 287 288 289 289 289 290 291 292 292 291 290 290 290 290 291 291 291 291 291 290 290
312 310 312 315 313 309 309 309 305 302 301 300 300 300 299 299 300 300 302 302 301 299 298 298 298 297 296 298 300 299 296 295 295 294 293 293 292 291 290 290 288 287 287 286 286 285 285 286 286 286 286 286 286 285 285 284 285 285 285 284 284 284 284 284 284 285 285 285 286 287 287 289 290 291 290 289 289 289 289 289 289 289 289 289 289 289
309 308 310 313 312 311 311 308 304 303 302 300 299 299 298 298 297 297 299 299 297 295 295 295 295 294 294 297 300 299 295 293 293 292 290 290 290 289 289 288 286 285 285 284 284 284 284 284 284 284 283 283 283 283 282 282 283 282 282 282 282 283 283 282 282 283 283 283 284 286 286 286 287 288 288 288 288 287 288 288 287 287 288 288 288 288
309 308 310 312 310 310 309 305 302 302 300 298 298 299 298 296 294 293 293 293 292 292 292 291 291 292 293 294 295 295 293 290 289 289 288 287 288 288 287 285 284 283 282 282 282 282 282 282 282 281 280 280 280 280 280 280 281 280 280 281 281 281 280 280 280 280 281 281 281 283 284 284 285 285 286 286 286 286 286 287 287 287 287 287 287 288
307 307 310 311 309 307 305 303 301 302 301 299 298 298 296 293 291 289 288 288 289 289 289 288 288 288 289 289 289 291 290 287 285 285 285 284 285 285 283 282 281 280 280 280 280 279 279 279 278 278 277 278 278 278 279 279 279 279 279 279 279 278 277 277 276 277 278 279 280 281 282 282 283 283 284 284 285 285 285 286 286 285 286 288 288 287
305 308 308 308 309 309 307 304 302 304 306 304 300 297 294 290 288 288 287 287 287 287 287 287 286 284 284 284 284 286 286 284 281 280 281 282 282 281 279 278 278 278 278 278 277 276 276 276 275 275 275 275 276 276 277 278 278 278 278 277 276 275 274 273 274 274 275 277 278 279 280 281 281 282 282 283 283 284 285 286 286 285 285 287 288 288
306 309 307 307 309 310 308 305 302 304 308 305 299 294 291 288 287 288 288 286 286 285 285 286 285 283 281 280 280 281 281 280 278 278 278 279 279 277 276 275 276 276 276 275 275 274 274 273 273 273 273 274 275 276 277 278 277 276 276 274 273 272 272 271 271 272 273 274 275 276 277 278 280 280 281 282 282 283 283 284 286 286 285 286 287 287
Wind_Speed
3 3 3 5 6 7 8 6 6 5 6 7 5 4 4 4 3 3 3 5 1 3 3 4 4 9 11 12 13 10 4 4 9 9 9 9 8 9 8 9 9 10 10 10 13 17 18 21 23 24 26 27 28 29 29 30 31 33 34 34 35 35 35 35 35 35 35 34 33 32 32 31 30 29 31 34 35 34 32 32 33 33 35 37 36 35
4 4 7 6 7 7 6 6 7 6 6 6 6 5 2 3 3 2 1 5 3 1 3 3 5 10 11 12 12 10 8 8 10 10 11 11 10 9 9 11 10 8 8 8 12 17 18 19 21 22 23 24 25 27 29 31 32 33 33 34 35 34 35 36 37 36 36 37 36 34 33 32 31 31 31 32 34 36 33 34 37 39 39 39 37 38
2 4 7 6 5 7 7 6 8 7 6 5 4 5 2 2 3 3 2 4 4 1 3 4 5 10 11 12 13 11 10 9 8 9 10 9 10 10 10 10 9 8 9 9 11 15 18 20 20 21 22 24 25 26 27 29 30 31 32 34 34 33 34 36 37 37 37 37 37 35 33 32 32 33 33 32 31 32 33 34 36 36 37 37 37 38
4 5 6 6 7 9 6 4 8 7 5 4 4 5 3 2 1 2 2 4 4 2 1 3 5 9 8 8 11 11 8 7 7 9 9 8 10 13 11 8 7 9 11 11 10 11 15 17 18 20 22 24 24 25 26 27 29 30 32 33 34 34 34 35 36 37 37 35 33 32 32 31 31 32 33 32 31 30 31 32 31 29 31 34 36 37
5 4 2 7 6 7 7 3 5 6 2 1 3 5 4 3 4 3 2 2 3 3 3 3 5 7 5 5 8 7 5 5 5 6 9 9 10 11 10 9 9 10 10 11 11 10 9 13 16 19 21 22 23 26 27 27 28 30 31 32 33 33 33 33 34 35 35 33 31 30 28 27 26 27 28 29 30 31 31 32 33 33 33 32 33 34
5 3 4 8 5 5 8 4 4 7 3 2 3 6 6 7 6 2 2 3 4 4 4 4 3 6 5 5 8 6 7 7 5 5 9 10 7 7 8 10 10 9 10 10 11 10 8 11 13 15 17 20 23 25 26 26 26 27 29 29 30 31 32 32 32 32 34 33 32 30 28 26 25 25 27 30 31 32 33 34 35 35 35 36 36 34
1 1 4 7 6 6 7 4 5 6 6 2 4 5 6 7 7 6 4 4 1 2 3 4 2 5 7 6 8 5 7 10 9 7 10 9 6 6 7 9 8 8 9 8 9 9 9 11 12 13 15 18 21 22 22 23 23 24 25 26 28 29 30 30 30 31 32 33 33 32 32 31 30 29 31 33 33 33 34 35 35 35 35 36 37 36
2 3 4 5 6 6 6 4 6 7 7 3 3 5 8 7 7 6 6 4 2 3 4 4 4 2 6 6 6 5 6 10 10 10 11 8 7 7 7 8 8 8 7 6 7 8 9 11 12 14 15 15 17 18 18 19 21 22 23 24 25 26 27 28 28 29 31 32 33 33 33 33 33 34 32 31 31 32 32 33 34 35 36 35 34 34
2 4 5 6 5 4 4 5 7 10 6 3 3 6 6 7 7 5 6 4 1 1 4 5 2 1 6 7 5 5 4 8 10 12 12 9 9 9 8 8 8 8 7 6 7 7 7 10 11 12 11 10 12 13 14 16 17 19 21 21 22 23 25 26 27 28 29 31 32 33 33 33 34 33 31 28 27 28 29 31 32 33 35 36 36 37
1 3 6 6 5 5 3 1 2 6 3 4 6 7 6 6 6 5 5 4 3 2 4 5 0 1 6 7 5 2 3 7 9 9 9 8 9 8 8 8 7 6 5 5 7 7 8 9 7 5 5 6 7 9 10 11 13 16 18 19 20 21 22 24 25 26 27 29 31 32 33 33 33 31 29 27 25 25 26 28 30 31 33 35 36 38
2 1 2 3 3 5 4 4 3 2 5 7 6 7 7 6 5 4 3 4 3 2 6 6 2 0 3 7 5 4 5 6 5 6 7 8 8 7 7 7 6 6 5 5 5 5 6 5 3 2 4 5 6 8 8 9 11 14 16 17 18 19 20 21 23 24 25 27 29 31 32 32 32 31 29 29 28 27 27 28 30 31 32 34 35 36
4 2 0 1 2 4 6 5 5 4 5 6 4 5 5 4 5 4 4 4 2 5 6 4 2 1 4 6 5 5 6 6 5 5 7 8 8 8 7 6 6 6 5 5 4 3 1 2 3 5 6 6 7 9 9 9 11 12 14 15 16 17 18 19 21 22 23 25 27 29 31 31 32 31 30 30 30 30 29 30 31 31 31 32 33 34
2 0 1 1 1 4 5 5 5 5 4 5 5 6 5 2 3 2 3 1 3 5 4 2 1 2 6 8 8 11 11 7 7 7 7 8 8 8 8 7 6 6 5 5 4 4 2 1 2 5 7 7 8 9 9 9 10 11 12 13 15 16 17 18 19 20 22 24 25 27 28 30 30 31 31 31 32 31 31 31 31 31 32 32 32 32
2 4 2 1 1 2 5 5 3 1 1 4 6 5 5 3 2 2 4 2 3 4 3 3 2 3 5 5 9 15 13 5 4 7 8 7 8 8 8 8 8 7 6 4 4 4 3 2 1 3 5 7 7 8 8 8 9 10 11 13 14 15 15 16 17 19 20 22 23 24 26 27 28 30 31 32 32 32 32 32 32 32 32 32 33 33
4 4 3 3 2 2 4 4 5 6 3 2 3 5 6 5 5 4 4 3 4 3 3 3 2 3 3 3 6 11 9 6 5 7 6 7 8 7 7 8 8 8 6 5 4 4 4 3 2 1 2 5 6 6 7 7 9 10 11 12 13 13 13 15 16 17 19 20 21 22 24 25 27 28 29 31 32 32 32 32 32 33 33 33 34 33
4 5 4 2 2 4 4 2 3 6 2 2 2 5 3 4 5 3 3 5 3 1 2 2 3 5 4 6 8 7 7 7 6 6 5 7 7 5 6 7 6 6 6 5 4 4 4 4 3 2 0 3 5 5 6 7 8 9 10 11 11 11 12 13 14 16 17 18 19 20 22 23 25 26 28 30 31 31 32 32 33 33 33 33 33 32
3 3 4 3 2 2 2 2 1 3 3 2 2 3 5 4 8 6 2 1 3 1 3 1 4 6 4 7 9 6 7 9 6 6 5 6 6 5 6 6 6 6 6 6 5 4 5 4 3 2 1 2 3 4 4 5 6 7 8 9 10 10 11 12 13 14 15 16 18 19 20 22 23 25 27 28 29 30 31 31 32 33 34 33 33 32
5 1 4 2 1 1 0 2 3 3 3 5 3 5 4 3 5 5 2 3 4 2 4 1 5 5 2 4 7 5 4 8 9 7 5 6 5 4 4 5 7 7 6 7 6 5 5 6 6 4 2 1 1 1 2 2 4 6 7 8 9 9 10 10 11 12 13 14 16 17 18 20 22 24 26 27 28 29 30 31 32 33 33 33 33 32
5 3 3 2 2 4 3 3 2 4 3 4 4 3 4 3 2 2 2 2 1 2 4 4 4 4 4 6 6 4 5 7 10 8 6 7 6 4 3 5 7 6 6 6 5 4 5 6 7 5 2 2 3 2 2 2 4 5 7 8 9 9 9 9 10 11 12 13 14 15 16 18 20 22 24 25 26 28 29 31 31 32 33 33 32 32
4 3 2 2 2 3 3 2 5 1 3 3 2 2 3 3 4 2 2 4 3 3 3 4 4 3 7 6 5 8 9 8 9 8 7 8 4 1 2 5 7 6 5 5 5 4 5 7 7 5 1 3 3 3 3 3 4 5 6 8 9 10 10 11 11 11 11 12 12 14 16 18 19 21 22 24 25 27 29 30 30 32 33 32 32 32
2 3 3 3 3 1 2 3 6 6 3 2 3 3 2 2 2 2 0 2 4 4 3 2 4 5 6 4 7 10 8 8 8 6 8 7 1 2 5 6 6 6 6 6 5 5 5 7 5 1 3 4 3 1 2 4 5 5 7 8 8 10 11 12 12 12 11 11 12 14 16 17 19 20 22 23 25 27 28 29 30 31 31 32 32 32
2 3 4 1 1 3 4 3 4 6 5 6 5 6 6 4 4 3 3 1 3 3 4 3 4 8 6 4 7 7 5 7 6 4 7 8 3 4 6 7 7 6 5 5 5 5 6 5 2 6 6 5 3 0 2 4 6 7 8 9 9 11 13 13 13 13 13 12 13 15 16 17 19 21 22 24 25 27 28 28 29 29 30 31 32 32
3 4 4 2 3 5 4 3 2 3 2 3 4 4 6 5 5 6 6 4 2 1 2 4 2 8 5 4 6 6 4 5 5 5 7 8 6 6 6 6 6 4 5 5 4 6 5 2 8 9 7 5 3 2 3 5 7 8 10 10 12 14 14 15 15 14 13 14 15 15 16 18 20 21 23 25 26 27 28 28 28 28 29 31 31 32
2 4 4 1 3 3 4 4 3 1 1 2 4 3 5 3 3 6 5 4 4 3 2 3 3 7 4 1 3 5 5 5 5 6 7 7 7 6 5 4 2 1 4 5 4 5 4 5 7 7 6 4 2 3 4 5 6 7 9 10 12 14 14 15 15 14 13 14 14 15 17 18 20 22 23 24 26 26 26 27 27 27 28 29 30 31
3 3 5 3 2 4 4 3 3 2 2 3 3 2 4 4 6 5 2 4 2 5 7 5 6 8 4 4 2 2 5 5 4 4 5 5 5 4 3 3 1 2 4 5 5 6 6 5 5 4 3 2 2 2 2 3 5 6 7 8 9 10 11 11 11 10 10 11 13 14 15 17 19 21 22 22 23 24 24 25 26 26 27 28 29 31
6 4 5 6 6 6 6 5 5 4 3 2 1 3 5 7 8 5 2 4 3 5 6 6 8 8 3 5 5 4 5 4 4 3 2 4 5 3 3 4 4 3 3 3 5 6 5 5 5 3 1 1 1 2 4 4 4 5 5 4 4 4 6 6 5 5 7 9 10 12 13 15 17 18 19 20 21 21 22 23 24 25 26 27 29 30
3 3 6 9 11 12 11 7 4 7 6 5 5 7 8 8 10 7 4 4 8 5 4 8 12 12 8 2 4 6 4 3 4 4 4 6 6 4 4 5 5 5 5 4 4 6 6 5 5 4 1 2 3 2 2 3 3 2 2 3 3 4 4 4 4 5 6 8 10 12 13 14 16 17 18 19 19 20 21 22 23 24 25 26 27 29
4 4 8 10 13 13 9 6 4 7 9 11 11 11 10 11 11 10 8 12 11 5 7 13 11 13 15 6 5 8 5 4 6 5 6 6 5 5 5 5 6 6 6 4 4 6 6 5 5 6 5 2 1 3 3 2 3 3 3 3 4 4 4 5 6 7 8 9 11 13 15 15 16 17 18 19 20 21 21 22 22 23 24 25 26 28
5 6 7 8 11 12 6 5 6 7 7 9 12 13 14 13 14 15 16 18 12 9 14 14 10 12 19 10 9 10 7 6 7 6 5 4 5 7 5 5 7 7 7 7 5 4 4 4 5 6 7 5 3 3 4 3 3 4 4 5 5 5 6 7 8 9 10 11 13 15 15 16 17 18 18 19 20 21 21 22 22 23 23 25 26 27
4 5 5 8 9 12 8 6 7 8 6 6 8 12 14 15 17 19 19 21 18 15 16 11 6 13 18 9 8 9 8 7 4 2 3 4 6 7 5 6 8 7 7 8 6 4 5 5 5 6 6 3 1 2 3 3 3 5 6 7 8 8 9 9 10 10 11 13 14 14 15 16 16 17 17 18 19 19 20 20 21 22 23 24 25 26
3 3 3 6 4 9 7 7 7 7 7 6 6 7 11 14 16 18 19 17 14 12 13 12 9 15 14 5 7 9 7 5 3 3 5 6 6 7 7 9 9 8 8 8 6 4 5 5 6 7 4 2 3 3 3 4 6 8 10 11 12 11 11 11 11 11 12 12 12 13 13 14 14 15 16 17 18 18 19 19 20 22 23 24 24 25
4 2 2 5 4 7 4 7 7 4 4 2 6 6 11 13 13 14 13 11 10 10 12 12 10 15 12 5 7 9 5 6 7 8 8 8 9 10 11 11 10 9 9 7 4 4 5 5 5 3 3 6 7 7 8 9 11 12 13 14 13 12 12 11 11 11 11 10 10 11 12 12 13 15 16 17 18 19 19 20 21 23 24 24 25 25
5 4 2 4 5 6 2 6 8 7 5 3 9 13 15 13 11 10 7 8 12 12 11 10 11 16 12 4 6 8 6 8 11 10 9 11 12 11 11 11 10 8 7 6 4 3 3 2 1 3 6 9 11 12 13 13 14 14 14 13 13 12 11 11 11 11 11 10 9 9 11 12 14 15 16 17 18 19 19 20 21 22 23 24 25 25
4 5 3 4 4 4 1 7 8 5 4 7 8 12 16 15 14 12 10 14 17 13 10 10 11 13 11 5 8 10 7 8 9 8 8 9 8 9 10 9 8 7 5 5 5 4 4 4 6 8 11 14 15 14 14 14 14 14 14 13 13 12 12 13 13 13 13 13 13 13 13 14 15 17 18 19 19 19 20 21 22 22 23 24 24 25
4 5 3 2 3 2 3 7 4 6 9 8 4 7 13 15 16 15 15 17 16 13 12 13 14 14 14 12 10 7 6 6 6 6 6 4 4 7 7 6 5 3 2 3 3 3 5 7 11 14 16 17 17 16 16 16 15 15 14 14 14 14 14 15 14 14 15 16 17 18 19 19 19 20 20 21 20 20 21 21 22 23 24 24 24 25
5 4 2 2 3 2 3 4 6 5 3 5 5 3 6 7 9 10 12 14 14 14 13 15 17 19 18 16 9 4 4 4 3 3 2 1 1 2 2 1 1 2 2 2 4 5 8 11 13 14 15 16 16 18 18 18 17 16 16 15 15 16 16 16 16 17 18 18 20 21 22 23 23 24 24 24 23 23 24 23 24 24 25 25 25 26
5 4 2 3 4 4 4 6 4 4 5 7 7 5 4 5 9 9 8 11 14 14 13 14 17 18 17 14 8 3 2 1 4 3 1 4 4 4 4 4 4 5 5 6 8 10 13 14 14 14 14 15 17 19 19 18 18 17 16 17 17 18 18 18 18 20 21 21 23 24 25 26 27 28 29 29 28 28 28 27 27 27 26 26 27 28
5 4 4 5 4 4 6 7 4 4 9 10 7 4 3 5 9 10 8 9 10 10 13 14 15 16 15 14 8 4 4 3 7 4 3 5 5 5 6 6 7 9 10 12 14 16 18 17 15 14 15 16 19 20 19 19 18 18 18 19 20 20 19 20 22 24 25 25 26 26 27 28 28 29 30 31 31 31 31 31 30 30 28 28 29 30
7 5 4 5 4 4 6 8 8 7 7 6 4 2 2 2 7 9 5 8 6 3 7 11 13 14 14 11 5 7 5 6 8 1 3 4 5 6 5 6 9 13 15 16 16 17 17 17 16 16 18 20 21 21 20 20 20 19 20 21 21 20 21 23 25 26 27 27 28 28 29 29 30 30 30 31 31 31 32 32 33 32 31 30 31 32
7 4 4 5 5 5 7 7 5 5 4 3 3 3 3 2 8 8 4 6 2 4 3 5 9 9 6 3 4 6 5 6 4 2 2 2 5 7 7 7 9 12 15 17 18 17 16 17 18 19 21 22 22 21 21 21 22 22 22 22 22 22 24 26 27 27 28 28 28 29 30 30 31 31 30 31 32 32 32 32 33 33 33 33 33 33
5 4 4 7 6 7 8 5 2 3 4 5 5 3 2 3 4 4 6 3 1 4 5 1 1 3 1 4 5 4 2 1 3 4 3 4 6 8 9 10 11 13 15 17 18 19 19 19 19 18 18 20 22 22 22 22 22 22 23 23 22 23 26 28 28 28 28 28 28 29 30 30 30 31 31 31 31 32 33 32 32 32 32 32 33 33
5 4 4 6 6 6 6 4 3 4 4 4 4 2 3 3 2 4 4 1 2 2 4 5 5 5 4 5 5 4 4 4 5 5 6 7 6 6 9 12 13 14 16 17 19 22 21 20 20 20 19 21 22 23 23 23 23 23 23 22 22 25 27 28 29 29 29 29 29 29 29 30 30 31 31 31 30 31 34 33 31 31 31 30 31 32
6 5 4 5 6 4 4 5 4 4 3 4 5 2 2 4 4 4 4 2 1 4 5 5 5 5 6 8 7 6 6 6 5 6 6 6 6 6 8 11 12 13 16 17 19 21 21 19 20 21 21 22 24 24 24 24 23 23 23 22 23 27 28 29 29 30 30 30 30 30 31 31 31 31 31 31 30 30 33 33 31 31 30 29 29 30
5 5 4 5 5 4 5 6 4 2 2 0 3 3 2 2 2 4 5 3 2 2 3 5 5 4 6 8 7 6 6 5 4 5 5 5 6 6 7 10 12 13 15 16 17 19 19 18 19 20 21 22 23 23 23 23 22 23 23 23 26 29 30 30 30 31 32 32 33 33 33 33 34 33 32 31 30 30 32 33 31 31 30 28 27 27
4 4 3 3 3 3 3 4 2 1 1 1 0 2 2 2 2 4 6 5 3 2 3 4 5 4 6 8 7 5 5 4 4 4 4 4 5 5 6 8 10 12 13 14 15 17 18 17 17 19 20 22 22 22 22 21 21 21 22 25 28 29 29 30 30 31 31 32 32 33 34 35 36 35 33 31 30 30 31 32 31 32 31 29 26 25
2 1 3 2 2 0 1 1 1 1 1 1 2 1 2 3 2 4 7 6 4 4 4 5 6 6 6 7 7 6 3 2 3 4 3 3 3 4 5 7 9 12 14 15 16 19 20 19 18 19 21 22 22 22 21 20 19 19 21 24 26 26 27 28 29 29 30 30 32 33 33 35 37 36 35 33 31 30 30 30 30 31 32 30 27 25
2 1 3 2 4 2 1 3 4 3 2 3 2 2 3 3 2 2 4 6 5 5 5 6 6 6 5 6 8 7 4 3 3 3 3 4 4 4 6 8 10 13 14 15 17 18 19 18 18 19 20 21 21 21 21 20 18 18 20 22 23 24 26 27 28 30 31 31 32 34 33 33 35 36 35 34 32 30 31 31 29 29 30 30 27 25
1 3 3 2 4 3 1 2 3 3 1 1 1 1 3 4 3 4 4 4 5 5 4 4 4 4 4 5 6 7 6 4 4 3 2 2 3 4 5 7 9 10 11 12 14 15 15 15 15 16 17 18 19 19 19 19 19 20 21 22 22 23 25 26 26 28 30 30 30 31 30 30 31 32 33 34 33 31 31 31 29 28 31 32 28 26
2 4 3 3 3 2 1 1 4 3 0 3 3 2 2 4 6 6 5 4 4 5 5 5 4 3 4 4 4 5 6 5 3 3 2 0 1 2 4 6 7 8 9 10 12 13 12 12 13 14 15 16 16 17 17 18 19 20 20 21 22 24 26 28 29 29 29 29 29 29 29 29 30 30 31 33 34 33 32 32 30 29 34 38 34 28
3 4 3 3 4 3 3 6 7 5 3 6 7 6 5 6 6 7 5 4 4 4 5 6 6 5 6 5 4 4 5 5 4 2 1 2 1 2 3 5 6 7 8 9 11 12 11 11 12 13 14 14 15 16 17 18 19 20 21 22 25 27 29 32 34 33 30 28 28 28 28 29 30 30 30 31 32 34 36 38 35 30 30 36 38 33
5 6 5 5 5 5 6 9 11 6 2 4 7 8 7 6 7 7 5 4 4 3 3 5 7 6 5 5 5 4 5 5 3 2 2 1 2 3 3 4 5 6 7 8 9 10 11 11 12 12 13 15 16 17 17 18 20 21 22 24 26 27 29 30 30 29 28 25 25 26 27 28 30 30 30 30 30 30 32 37 40 38 33 30 32 33
Wind_Direction
95 127 185 187 186 193 196 173 142 154 144 136 132 119 148 177 244 255 263 303 351 135 259 270 273 276 273 276 278 280 305 303 280 278 271 264 260 258 253 253 249 245 252 262 264 258 252 252 251 249 248 244 240 238 236 233 231 230 229 227 227 227 223 218 216 216 217 216 216 216 216 218 220 221 219 221 227 229 232 236 236 238 238 236 231 229
94 167 213 207 189 180 161 131 106 97 88 97 136 143 166 199 229 261 260 316 353 148 267 359 328 277 267 274 274 276 288 273 255 256 261 260 259 259 255 255 253 258 272 274 265 259 252 250 248 246 245 241 237 237 234 233 233 230 226 225 226 226 221 219 218 215 216 217 218 218 219 220 223 227 225 221 223 228 238 243 238 235 232 230 228 227
135 219 228 205 155 107 87 90 94 90 88 88 115 135 170 226 238 278 300 330 6 105 263 352 336 279 265 268 268 263 259 253 244 241 249 257 262 262 255 254 260 271 275 266 259 259 253 249 246 242 240 238 238 238 236 234 233 228 223 224 225 224 222 221 220 218 219 220 220 221 222 223 224 227 230 229 229 230 235 238 231 227 227 228 229 228
184 251 239 180 138 111 88 64 91 88 79 93 110 135 188 250 188 222 291 331 9 70 261 325 312 283 279 281 274 265 258 263 263 255 253 247 248 256 261 266 265 260 265 266 262 259 256 252 246 239 237 237 236 235 234 232 229 226 224 224 223 223 224 223 222 221 222 221 220 221 223 225 225 227 230 233 235 234 233 233 232 232 231 228 228 230
204 263 191 135 126 125 122 99 115 118 81 82 145 145 166 198 177 191 284 328 4 28 32 13 322 294 307 313 284 286 313 293 281 287 277 253 243 256 272 274 258 251 257 263 265 261 253 249 244 240 237 235 233 231 232 231 228 226 225 224 223 223 224 223 223 222 220 219 218 219 220 222 224 226 228 229 231 232 232 234 238 243 244 237 231 230
231 258 130 124 110 111 127 162 180 154 153 268 215 178 173 172 163 147 34 53 33 356 360 25 335 289 315 311 273 299 339 307 301 306 277 265 257 252 260 263 254 251 249 247 258 265 259 254 250 245 236 230 230 232 233 232 230 228 227 224 222 222 224 224 223 221 219 218 217 216 214 215 217 220 223 225 227 229 231 234 237 240 243 244 242 239
222 22 93 127 130 119 130 183 212 155 131 220 236 175 149 132 129 129 107 86 86 267 327 47 143 265 311 292 265 310 336 306 304 295 275 276 277 248 242 254 250 248 248 245 255 263 266 263 257 249 237 227 229 232 232 231 229 228 227 225 223 223 224 224 223 221 219 218 218 218 217 217 218 220 225 228 230 231 233 235 237 238 239 240 239 238
137 87 73 103 111 117 140 195 209 148 128 213 232 133 126 123 133 139 109 96 191 241 331 18 115 247 298 267 268 330 331 307 305 292 285 292 292 275 258 255 250 247 249 247 253 258 260 259 255 250 243 234 232 232 230 228 226 225 225 225 224 223 224 224 223 222 221 220 220 221 221 222 223 226 230 232 234 235 236 237 238 239 240 240 241 240
107 145 167 140 121 145 180 216 189 144 126 234 197 122 123 124 126 119 95 90 37 354 312 318 92 196 273 272 304 349 315 291 285 274 279 293 297 294 287 276 266 259 248 237 244 251 252 257 260 256 246 237 232 227 226 226 223 221 221 221 222 222 223 223 224 223 224 224 224 224 224 225 228 231 233 236 237 237 237 238 238 239 239 240 243 245
56 184 193 147 147 187 195 296 172 138 130 182 142 100 79 77 79 79 89 100 53 16 250 262 295 190 265 280 297 329 256 255 262 267 272 279 285 290 296 295 289 283 269 247 245 249 256 265 272 258 229 221 217 214 215 215 214 213 214 216 217 220 221 223 224 224 226 226 226 227 227 228 231 233 235 236 238 238 237 237 238 239 239 240 241 241
320 259 190 118 154 182 138 70 38 87 130 139 117 78 62 39 35 49 57 81 65 306 253 254 287 181 267 277 254 220 221 217 236 284 289 292 302 301 302 310 310 308 300 282 270 264 266 265 246 186 176 178 181 188 193 197 201 204 207 211 214 218 220 222 224 225 227 227 227 229 231 233 235 236 237 237 238 239 238 239 239 240 241 241 242 242
353 30 211 158 138 129 101 68 32 36 95 107 96 92 84 11 11 26 1 41 106 257 260 268 293 166 229 260 252 245 254 233 216 256 278 291 307 308 308 318 319 314 307 309 318 320 331 139 164 168 160 155 163 173 179 185 192 195 201 207 210 214 218 220 223 225 227 228 229 232 233 236 238 239 240 241 242 242 241 242 244 244 244 243 243 244
356 8 287 338 171 149 115 82 41 1 18 73 103 106 98 15 14 4 313 335 214 246 268 282 245 209 237 250 260 267 269 254 220 228 246 262 283 297 303 311 316 314 308 312 324 328 348 121 166 167 158 157 159 165 174 179 185 191 197 204 209 214 217 220 222 225 228 229 231 234 235 238 241 242 243 244 246 247 247 248 248 247 247 247 247 246
287 303 317 84 254 196 144 130 131 227 234 125 138 131 130 122 99 241 263 284 258 260 289 288 248 259 276 265 249 252 260 263 226 229 234 243 263 280 293 302 303 300 294 288 297 301 289 268 213 161 159 160 156 161 172 178 185 192 198 205 211 215 218 221 224 227 229 232 234 236 239 241 243 244 246 248 249 250 251 252 252 252 253 253 253 253
192 269 233 168 215 187 168 175 154 147 145 171 161 131 146 156 153 201 214 203 237 276 310 298 251 202 228 270 238 235 258 289 267 252 248 248 258 272 289 295 292 293 292 282 282 281 281 297 332 46 155 158 159 165 174 184 193 198 203 208 212 217 220 224 228 230 233 236 238 240 242 243 245 247 250 252 253 254 255 255 256 257 257 258 259 260
171 250 262 275 269 153 164 231 124 113 113 249 122 103 159 185 140 137 177 172 168 336 311 265 238 215 214 274 274 259 277 287 269 275 276 260 272 303 302 293 293 296 294 292 300 304 308 329 354 347 200 161 163 177 187 196 203 207 212 215 217 221 224 228 232 234 238 241 242 244 245 247 248 250 252 254 255 256 257 258 259 260 261 262 263 264
160 263 310 335 346 95 152 225 100 119 173 165 125 172 212 170 112 113 196 75 82 235 269 226 252 289 320 289 293 300 285 288 297 302 285 270 291 314 296 291 295 289 283 288 296 299 303 316 334 324 267 192 175 187 201 205 217 226 227 226 226 225 226 230 234 238 242 244 246 248 249 251 252 253 255 257 258 260 261 262 262 263 264 264 264 264
158 183 326 31 102 341 249 146 60 38 118 124 173 210 193 119 93 110 165 12 43 239 274 283 246 287 321 274 317 355 264 274 287 286 294 297 291 287 282 276 275 280 287 290 292 290 287 293 303 306 283 199 158 199 220 215 232 239 240 240 238 235 233 236 239 242 245 247 250 253 254 256 257 258 260 262 263 264 263 264 264 264 265 265 265 265
132 144 314 33 167 298 347 110 100 8 54 123 183 180 116 139 165 87 142 166 116 231 278 300 276 266 210 229 303 311 217 238 262 273 300 292 268 273 310 287 277 286 290 284 289 294 292 297 301 298 314 39 40 7 330 266 250 245 247 250 247 248 247 244 244 244 246 250 253 258 260 262 263 264 266 266 267 267 265 266 267 266 266 267 266 265
116 139 256 321 262 293 13 127 189 213 25 45 95 101 80 129 164 154 153 164 165 193 248 308 324 266 227 211 219 235 227 220 241 264 281 277 261 210 273 278 280 285 283 280 287 294 299 300 291 280 324 44 48 7 336 303 281 267 259 258 254 256 254 248 247 247 248 254 260 265 267 268 270 271 272 272 271 269 269 270 270 269 269 269 267 266
109 144 208 295 323 225 180 215 189 167 140 100 118 160 176 65 110 162 133 118 138 157 185 273 298 264 249 206 195 222 231 216 220 242 263 280 18 155 233 255 266 274 279 284 300 313 299 281 273 180 84 70 76 5 300 288 284 280 274 274 274 273 267 261 259 258 260 266 271 275 278 279 280 279 278 278 276 274 274 274 273 272 272 271 269 268
146 149 166 159 319 201 223 252 192 173 168 161 170 184 181 154 124 154 246 234 116 139 166 178 264 267 250 202 201 219 226 222 221 230 263 284 289 237 247 253 254 261 271 281 299 292 266 248 113 88 90 91 93 267 285 288 290 292 292 292 290 282 276 271 269 267 269 273 275 278 284 287 286 285 283 281 280 279 279 278 277 277 275 273 273 271
130 110 122 156 218 216 243 275 206 197 171 156 194 195 175 172 141 152 210 221 116 134 151 117 261 273 255 192 207 225 239 250 239 223 250 279 283 269 270 266 257 252 260 275 280 265 261 82 81 82 84 82 67 360 334 320 310 303 298 294 286 278 275 274 273 272 271 271 273 278 283 286 286 286 285 284 283 283 283 283 282 280 277 277 277 275
119 115 128 206 300 307 315 335 14 45 108 180 237 194 163 187 149 143 181 172 145 187 152 102 264 271 286 289 233 241 265 280 263 235 236 268 292 293 289 293 309 305 293 302 303 295 320 42 73 81 80 73 32 353 334 312 298 286 279 276 274 274 277 276 273 272 273 274 278 282 284 286 287 286 286 286 286 287 288 288 287 284 281 281 280 278
189 164 134 118 10 345 335 339 331 291 199 203 232 164 143 127 100 97 115 107 152 215 166 152 238 255 286 323 323 317 320 317 298 260 226 242 280 290 282 290 322 341 330 335 330 322 337 16 41 53 55 36 4 337 280 252 247 247 249 254 262 270 276 277 277 280 285 286 288 288 288 289 290 290 291 291 291 292 294 293 291 289 286 283 281 280
184 175 148 155 179 203 210 213 224 211 177 201 185 138 155 142 134 152 133 108 228 230 160 172 237 250 296 344 336 334 342 333 311 310 268 246 259 268 273 283 291 300 299 305 312 309 318 335 333 332 11 86 143 198 216 225 234 245 256 265 277 288 288 291 300 302 299 298 296 295 297 300 301 301 301 301 301 302 300 298 295 292 289 286 283 282
141 171 188 191 200 208 208 208 175 127 139 200 192 162 174 174 167 161 122 164 216 203 169 218 236 248 259 275 295 297 300 267 277 305 289 253 243 244 248 264 283 286 272 265 275 283 291 301 297 299 303 154 163 190 233 256 275 297 331 351 357 352 345 344 345 334 323 316 311 312 317 318 316 315 313 312 311 308 306 303 300 296 294 290 285 282
101 201 210 201 218 226 209 196 174 141 163 195 190 176 180 180 175 171 186 215 210 173 235 236 220 244 254 212 208 261 256 242 257 255 247 244 243 253 260 276 290 289 284 274 250 261 282 295 300 322 342 356 32 17 7 357 1 15 26 31 32 27 22 14 3 355 346 336 332 334 334 331 327 325 323 320 317 315 312 310 306 303 300 295 288 285
128 211 213 190 226 241 208 171 185 178 180 193 191 186 183 179 181 190 209 222 207 189 238 235 176 221 250 223 198 230 218 211 234 226 220 240 254 261 274 291 286 281 288 289 269 258 277 291 301 322 333 335 348 7 22 35 36 47 59 60 53 42 31 20 8 2 356 350 349 347 342 338 334 332 329 326 323 321 319 316 313 309 304 299 295 292
151 215 206 174 221 246 222 176 183 188 185 201 201 189 184 185 190 199 212 222 218 215 238 246 189 229 250 227 195 227 223 214 226 177 183 226 255 272 284 276 264 261 272 279 286 300 308 309 302 298 302 306 330 5 20 40 46 54 57 52 47 37 29 23 15 10 6 2 359 353 346 343 339 335 333 330 327 326 322 319 316 311 307 303 300 298
193 222 181 145 204 255 229 180 190 196 185 207 221 192 187 195 202 211 218 222 224 230 248 262 262 259 259 199 184 234 229 205 222 215 222 243 261 270 268 258 255 257 263 268 276 294 298 288 273 271 284 355 45 34 20 22 33 46 46 40 38 33 27 23 18 14 10 3 359 352 346 342 340 338 337 335 332 329 326 323 318 313 310 307 304 302
185 210 72 109 179 253 228 169 176 147 110 236 256 218 197 199 208 217 220 218 214 217 238 250 255 260 258 179 190 234 199 171 221 227 231 246 245 241 244 248 253 255 259 263 245 215 227 241 252 274 10 36 38 34 29 28 33 37 34 30 29 26 21 17 12 8 5 360 352 346 342 340 339 338 337 336 334 332 329 325 321 318 315 312 310 306
159 160 126 137 184 256 263 139 137 106 85 261 248 223 209 204 210 218 224 229 219 206 218 229 230 248 256 180 194 231 183 182 221 219 215 231 236 240 245 248 257 263 270 286 291 266 264 280 337 46 47 38 34 35 32 29 29 27 22 21 21 19 14 8 4 2 4 4 356 349 346 343 339 337 337 335 332 329 327 323 320 319 317 314 311 306
141 144 170 166 180 245 187 111 112 130 203 236 228 208 207 206 205 208 215 224 220 208 214 232 239 255 263 222 212 228 205 204 227 225 225 233 234 246 255 260 268 273 288 314 328 331 337 13 42 48 45 37 34 36 33 26 23 20 17 15 16 14 8 4 4 6 7 7 3 358 353 345 339 335 333 332 330 326 324 321 319 318 316 312 307 301
140 150 171 152 157 199 114 105 141 209 224 243 239 183 199 209 204 206 221 229 226 217 221 239 251 255 254 245 233 225 221 231 239 239 249 255 235 236 248 269 280 272 300 354 23 36 27 32 33 32 33 34 34 32 26 20 17 14 13 12 10 7 4 4 8 9 5 1 357 353 349 343 337 333 330 330 328 324 323 321 319 318 317 312 305 300
149 154 151 135 160 166 117 158 212 236 256 283 288 198 187 199 191 204 236 246 238 227 219 229 241 245 249 254 249 205 202 241 276 269 269 340 322 237 200 197 35 77 84 51 51 45 32 32 33 32 34 37 35 29 22 17 13 9 9 10 7 5 5 8 11 6 358 353 349 346 343 340 335 332 331 331 328 325 324 323 321 320 319 314 308 304
148 143 143 187 201 203 216 221 238 311 308 276 262 235 183 165 168 184 226 247 240 228 217 223 237 245 253 258 252 190 147 283 296 289 24 47 41 63 90 98 80 69 59 45 45 43 38 37 39 40 42 42 35 26 19 15 10 7 7 7 6 6 9 10 7 360 352 348 345 341 340 338 335 334 333 332 330 328 327 325 323 323 321 316 311 308
166 175 176 197 206 194 225 244 249 256 258 251 238 223 196 179 171 170 202 243 245 223 209 216 233 242 249 254 242 156 113 278 268 265 30 32 41 64 67 64 60 54 46 39 36 35 33 34 39 42 41 38 31 23 17 14 10 8 8 7 6 8 9 6 360 353 348 345 342 340 339 338 336 334 332 331 330 328 327 326 325 324 322 318 314 311
183 194 181 195 207 183 204 231 231 228 245 244 223 254 297 177 140 133 186 247 262 238 207 207 221 237 244 248 222 140 145 247 255 235 45 26 43 56 52 46 43 43 45 42 36 32 27 28 35 38 35 32 25 19 16 14 11 11 9 7 7 8 6 359 353 349 345 342 341 339 339 338 336 334 332 330 329 327 326 326 325 324 322 319 316 314
183 184 185 200 211 200 203 221 230 233 244 223 216 281 295 160 123 124 198 242 283 339 307 210 217 244 248 200 152 150 184 237 229 137 75 55 61 51 45 47 41 38 40 37 33 31 27 28 31 31 29 25 19 16 16 12 11 12 8 4 6 5 359 352 347 344 342 341 340 339 339 339 337 335 332 330 327 326 324 323 322 322 321 319 317 315
183 175 194 206 212 214 216 226 248 256 241 212 198 209 196 135 112 171 216 234 42 356 341 30 130 332 12 127 138 155 182 190 126 114 70 59 62 44 36 43 45 41 38 33 28 25 22 24 26 26 25 20 15 15 15 10 10 9 3 1 3 358 350 345 343 342 340 339 339 338 337 338 336 333 331 329 326 324 322 321 320 318 318 317 315 312
184 180 193 205 211 216 221 230 251 265 245 177 153 164 166 167 222 210 197 81 74 75 40 54 64 45 64 94 96 112 118 93 88 81 55 50 53 39 30 33 35 33 28 26 25 21 16 15 16 15 15 13 12 14 12 8 7 3 357 358 356 348 343 342 341 340 338 337 336 335 334 334 333 331 329 328 326 322 320 319 318 316 314 313 310 307
175 175 187 197 199 199 208 214 219 247 251 141 125 122 178 191 204 164 116 77 87 98 77 70 63 52 75 87 82 93 100 84 68 64 59 51 45 37 30 30 30 24 19 19 18 14 11 9 7 6 6 7 8 9 9 6 2 357 353 351 346 341 340 340 340 338 335 334 333 331 330 329 328 328 326 325 324 320 317 317 316 314 312 309 306 303
179 179 190 196 184 168 192 213 208 218 279 211 150 179 196 184 174 142 125 110 99 107 100 91 72 58 88 99 94 88 83 73 65 63 58 47 40 33 27 28 27 19 14 14 10 7 7 5 359 357 359 3 4 4 5 4 358 352 348 344 341 341 341 340 338 336 333 331 330 328 327 325 324 324 323 322 322 318 315 315 314 312 311 307 303 298
204 186 168 177 182 165 186 214 210 170 267 320 103 180 155 94 103 136 128 113 119 164 148 117 108 106 108 105 99 91 83 76 74 67 56 50 44 35 29 30 25 15 8 6 4 2 2 359 353 350 351 356 359 359 359 360 357 350 344 341 340 341 340 338 336 332 330 328 326 325 325 323 321 321 320 320 320 317 313 313 312 309 308 305 299 292
251 155 98 117 186 254 55 178 155 108 138 115 60 58 105 103 119 136 127 125 146 165 148 136 137 136 130 122 111 100 88 82 77 60 45 45 36 26 27 26 18 11 5 1 359 357 354 352 351 348 346 347 352 353 352 354 354 347 339 336 338 340 338 335 332 329 326 325 324 323 323 322 320 320 320 319 318 316 312 310 307 304 302 299 294 288
292 140 90 118 186 180 164 182 168 147 161 154 122 87 90 82 65 107 128 136 141 139 136 135 134 132 130 125 121 121 123 108 89 60 30 24 14 11 19 17 9 4 359 356 353 350 349 348 346 344 341 339 342 345 345 346 347 342 337 338 341 340 336 332 330 327 324 324 323 322 322 321 319 318 317 316 315 313 310 307 303 299 296 293 290 286
244 149 123 171 187 169 172 186 143 98 66 188 169 167 140 120 104 89 95 113 116 112 110 106 110 122 120 109 115 124 122 106 95 89 55 16 357 8 19 11 359 351 348 348 347 346 346 343 340 338 334 330 333 337 338 340 341 339 341 344 343 339 335 332 329 325 322 322 322 320 320 318 316 315 314 313 311 309 306 304 302 297 292 290 286 282
140 160 174 160 144 113 354 167 125 94 20 246 240 238 167 145 134 116 102 98 100 103 105 92 76 78 91 93 104 115 118 117 109 101 105 182 348 30 23 1 343 334 333 336 338 340 340 337 332 328 324 322 327 331 333 336 338 340 344 345 341 339 336 334 330 325 322 322 321 319 319 317 313 312 311 309 308 307 303 301 298 295 293 294 291 283
146 173 172 113 132 185 217 180 164 158 200 218 210 191 167 152 141 131 125 125 125 130 130 117 101 85 80 84 94 115 128 132 122 111 161 178 111 54 16 348 332 323 324 328 330 332 333 328 324 321 317 318 326 332 334 337 340 343 344 342 339 339 338 336 332 327 324 323 321 319 318 315 312 310 309 307 306 307 305 303 300 294 290 293 296 292
176 182 170 148 175 217 208 180 175 180 220 214 183 165 157 152 148 146 146 144 143 144 141 135 133 130 116 100 95 109 125 127 123 139 173 140 78 42 3 335 324 321 323 327 330 330 328 326 326 324 322 325 330 334 336 338 340 341 339 338 338 338 337 337 333 326 322 322 320 317 316 313 310 308 307 304 303 303 303 303 303 300 294 291 295 295